Wind_Speed
70 69 67 66 66 65 64 63 62 56 48 44 42 40 39 36 33 31 30 35 47 61 73 82 89 96 103 111 118 123 123 122 119 116 112 107 102 95
69 67 66 65 64 63 62 61 60 58 51 44 41 38 37 35 33 31 30 32 42 55 68 77 84 92 99 107 115 121 124 123 120 117 114 110 105 98
68 66 65 64 63 62 61 59 57 56 52 45 42 38 36 35 33 31 29 30 37 49 63 73 80 88 95 103 111 119 124 123 121 118 115 112 107 100
67 65 64 63 62 61 60 57 55 54 52 46 41 39 36 34 32 30 28 28 32 43 57 69 77 84 91 99 107 116 122 124 121 119 116 113 109 104
66 64 63 62 60 60 59 56 54 52 50 46 41 39 36 34 32 29 27 26 29 37 51 63 73 79 87 94 104 113 120 123 122 120 117 115 112 106
64 63 62 61 60 59 57 55 52 50 48 45 42 38 36 33 31 28 26 25 27 33 45 57 68 76 83 91 99 109 117 122 122 121 119 116 114 109
63 62 61 61 59 58 57 54 51 49 47 44 41 38 35 32 29 27 25 24 25 29 39 52 63 72 79 87 94 104 114 120 122 122 120 118 116 112
62 61 60 59 58 57 56 53 50 48 46 44 41 38 35 31 28 26 24 24 24 28 36 46 58 67 75 83 90 99 109 117 121 122 121 119 117 114
62 61 59 58 57 55 54 51 48 46 44 43 40 36 33 30 27 25 23 22 23 26 33 41 53 62 71 79 86 95 105 114 119 122 122 120 118 115
62 61 59 57 56 54 53 50 47 44 42 41 38 35 31 28 25 23 22 21 22 25 30 37 48 57 67 75 82 90 100 110 117 121 121 120 118 116
61 60 59 56 54 53 52 49 45 42 40 38 37 34 30 26 23 22 20 20 20 24 28 35 43 52 62 70 78 86 95 106 114 119 121 121 119 117
59 58 57 55 53 51 50 48 44 41 39 37 35 32 28 24 21 19 18 18 18 21 26 32 40 48 57 66 74 82 91 101 110 117 120 120 120 118
58 57 55 54 51 49 49 47 44 40 38 36 33 29 25 22 19 18 16 16 17 19 24 30 38 45 53 61 70 78 86 96 106 114 118 119 120 119
57 56 54 52 50 47 46 45 43 40 37 34 31 28 24 21 18 16 15 15 17 19 22 28 35 43 50 57 66 74 82 91 101 110 116 118 118 118
56 54 52 51 48 46 45 44 42 38 35 32 29 27 23 19 16 15 14 14 16 19 21 26 33 40 47 54 61 70 78 87 97 106 113 116 118 118
54 52 51 49 47 45 44 43 41 37 33 30 28 25 21 17 14 13 12 13 15 18 20 24 30 36 44 51 58 66 74 82 92 102 109 114 117 117
52 51 49 48 46 45 43 42 39 35 32 29 26 23 19 15 13 11 11 12 14 17 19 23 27 34 40 47 54 62 70 78 87 97 105 111 115 115
51 49 48 47 45 44 42 40 37 34 30 27 24 21 18 14 12 11 10 12 14 16 19 22 27 32 37 43 50 58 66 74 83 92 101 108 111 113
49 48 47 46 44 43 40 38 35 32 29 25 22 19 16 13 10 9 9 10 12 15 18 20 25 30 35 40 47 56 62 70 79 88 97 104 108 110
48 47 46 44 43 41 38 35 33 30 26 23 19 17 14 10 7 6 6 8 11 13 16 19 23 28 33 39 45 52 60 67 75 83 92 100 104 106
47 45 44 42 40 38 36 33 30 27 23 20 17 14 12 8 5 3 4 7 10 13 15 18 22 27 32 37 42 48 56 63 71 79 87 95 101 104
45 43 42 40 38 36 33 31 28 24 20 17 15 13 10 6 3 1 4 6 10 13 15 18 22 25 30 34 39 46 54 60 67 75 83 91 96 100
42 40 39 37 35 33 31 28 25 22 18 16 14 12 9 6 2 1 4 7 10 13 15 18 20 24 29 34 38 44 52 59 65 71 78 85 90 93
Wind_Direction
328 328 328 327 327 327 327 327 327 328 328 323 319 315 311 307 300 287 269 246 230 222 217 215 215 213 212 210 208 207 205 204 204 204 204 203 203 203
328 328 328 328 328 327 327 326 326 326 328 325 320 316 311 307 302 292 276 255 235 223 218 215 214 213 211 210 208 207 205 204 203 204 204 203 202 203
328 328 328 328 328 328 327 326 326 325 325 325 320 317 312 307 302 294 280 261 240 226 219 215 214 213 211 209 208 207 205 204 203 203 203 203 202 202
328 328 328 328 328 328 327 326 325 324 324 324 320 316 312 307 303 295 283 266 246 230 220 216 214 213 211 210 208 206 205 204 203 203 202 202 202 202
328 329 329 328 328 328 327 326 325 324 323 322 321 316 312 306 302 296 285 269 251 233 222 217 214 212 211 210 208 206 205 203 202 202 202 202 202 202
329 329 329 329 328 328 328 326 325 324 323 322 320 317 312 306 301 295 284 271 253 236 224 218 214 212 211 210 208 206 205 204 202 202 202 202 202 201
329 328 329 329 328 328 328 327 325 324 323 322 319 317 313 306 299 293 284 271 255 239 225 218 215 213 211 210 208 206 205 204 202 202 202 202 202 202
329 328 329 329 328 328 329 327 325 324 323 322 319 316 313 307 299 292 282 270 256 239 226 218 215 213 211 210 208 206 205 204 202 202 202 201 201 202
329 329 329 329 328 329 329 328 326 324 322 322 319 316 312 306 298 291 281 270 256 240 227 217 215 213 211 209 208 207 205 204 203 202 202 201 201 202
329 329 329 329 329 329 330 329 327 325 323 322 320 316 312 305 298 290 279 268 256 242 228 217 214 211 211 209 208 207 206 204 203 202 201 201 201 201
328 329 329 330 329 329 330 330 328 326 325 323 322 318 312 305 297 290 278 267 255 241 227 216 212 210 209 208 208 207 206 204 203 202 201 201 201 201
328 329 329 330 330 330 331 330 329 327 326 324 322 319 312 305 296 289 278 264 251 238 225 214 210 208 207 207 207 206 206 204 203 202 201 201 202 202
329 329 330 330 330 330 331 331 329 328 327 326 324 320 314 306 295 287 277 262 247 234 223 213 209 206 206 206 206 206 205 204 203 202 201 201 202 202
329 330 330 330 331 331 332 331 330 328 327 327 325 322 316 307 295 285 275 261 243 231 222 213 208 205 203 204 204 204 204 204 203 202 201 201 201 201
329 330 330 331 332 332 332 332 331 329 327 327 326 323 317 308 296 282 272 258 239 229 221 213 208 204 202 201 203 203 203 203 203 202 201 201 201 201
330 330 331 332 333 333 332 332 332 331 329 328 327 324 317 308 298 282 269 255 238 228 219 212 207 204 201 200 201 202 202 201 202 202 201 201 201 201
330 331 331 332 333 333 333 333 333 332 330 329 328 325 319 310 299 283 264 247 234 224 217 210 205 203 201 199 199 200 200 200 201 201 201 201 201 201
331 332 332 333 333 333 333 333 333 332 331 329 329 327 321 311 299 282 259 241 228 219 211 207 204 202 200 198 197 197 198 198 199 200 201 200 200 201
331 332 333 333 334 334 335 335 334 333 332 330 329 328 324 315 301 280 256 236 224 216 208 203 201 201 198 195 194 194 195 196 197 198 199 199 199 200
333 333 334 334 335 336 336 336 336 335 334 333 332 332 331 325 309 280 249 226 213 206 201 196 195 195 193 192 192 192 193 194 195 196 197 198 198 199
333 334 335 336 337 338 339 339 340 340 339 339 339 339 339 337 323 270 229 212 203 197 193 190 190 190 189 188 189 190 190 191 192 193 195 196 197 198
334 336 337 339 340 341 342 343 344 346 347 348 348 348 350 351 346 234 202 192 188 186 184 183 183 184 185 186 187 187 187 188 189 190 192 194 196 198
336 338 340 341 343 344 346 347 348 350 353 354 357 359 2 4 9 157 178 175 175 175 178 179 178 179 181 183 184 184 184 184 185 186 189 191 194 196
Height
5464 5449 5435 5420 5406 5392 5378 5364 5352 5344 5340 5330 5319 5310 5301 5295 5289 5285 5283 5284 5287 5296 5308 5322 5338 5356 5376 5398 5421 5446 5472 5499 5525 5550 5575 5597 5619 5638
5453 5439 5424 5410 5396 5382 5369 5356 5343 5332 5326 5321 5311 5303 5294 5288 5282 5278 5275 5275 5277 5284 5294 5308 5323 5339 5358 5380 5403 5428 5454 5481 5508 5534 5559 5581 5604 5623
5442 5428 5414 5400 5387 5373 5360 5348 5336 5324 5315 5311 5302 5295 5287 5281 5276 5271 5267 5267 5269 5274 5282 5294 5308 5325 5343 5364 5386 5411 5437 5465 5491 5517 5542 5566 5589 5610
5432 5418 5405 5391 5378 5364 5352 5340 5328 5317 5306 5300 5295 5287 5280 5273 5268 5264 5261 5259 5260 5265 5272 5283 5297 5312 5330 5350 5371 5395 5421 5448 5475 5501 5527 5553 5575 5594
5422 5408 5395 5381 5369 5356 5343 5331 5320 5309 5299 5291 5285 5279 5272 5266 5261 5257 5254 5253 5253 5256 5263 5273 5286 5300 5317 5335 5356 5380 5406 5435 5462 5488 5510 5534 5558 5580
5412 5399 5386 5372 5360 5347 5335 5323 5312 5302 5292 5283 5276 5270 5264 5259 5253 5250 5248 5247 5247 5249 5254 5264 5275 5289 5305 5323 5345 5368 5393 5418 5444 5470 5495 5520 5544 5566
5403 5390 5376 5363 5350 5338 5325 5314 5303 5293 5284 5275 5268 5262 5257 5251 5247 5243 5241 5241 5241 5242 5247 5255 5266 5280 5295 5312 5331 5353 5377 5402 5428 5454 5480 5505 5529 5552
5394 5381 5368 5355 5342 5329 5317 5305 5294 5284 5275 5268 5261 5254 5249 5244 5240 5237 5235 5234 5235 5238 5240 5248 5257 5270 5284 5302 5321 5341 5363 5387 5413 5439 5465 5490 5515 5538
5385 5372 5359 5346 5333 5321 5310 5299 5288 5277 5268 5260 5253 5247 5242 5237 5233 5230 5228 5228 5229 5231 5234 5241 5250 5262 5276 5292 5310 5330 5351 5375 5400 5426 5452 5477 5502 5525
5375 5362 5350 5338 5324 5313 5302 5291 5281 5271 5263 5254 5247 5240 5235 5230 5227 5224 5223 5222 5223 5225 5228 5235 5243 5255 5268 5283 5300 5319 5339 5362 5387 5413 5439 5464 5488 5512
5366 5353 5341 5329 5317 5305 5294 5284 5274 5265 5256 5248 5240 5234 5228 5224 5221 5218 5217 5217 5218 5220 5223 5229 5237 5247 5260 5275 5291 5308 5328 5350 5375 5400 5426 5451 5476 5498
5358 5345 5332 5320 5308 5296 5286 5276 5266 5258 5250 5242 5235 5228 5222 5218 5215 5214 5212 5212 5213 5215 5219 5224 5231 5240 5253 5266 5282 5299 5318 5339 5363 5388 5413 5438 5462 5485
5349 5337 5325 5312 5301 5289 5278 5268 5259 5251 5243 5236 5229 5223 5217 5213 5211 5209 5208 5208 5209 5211 5215 5220 5226 5234 5245 5259 5274 5291 5309 5329 5352 5376 5401 5426 5450 5474
5341 5328 5317 5305 5294 5283 5272 5262 5253 5244 5237 5230 5223 5218 5213 5209 5206 5205 5204 5204 5206 5208 5211 5216 5222 5230 5240 5252 5267 5283 5300 5320 5341 5365 5390 5414 5439 5463
5332 5320 5309 5298 5287 5277 5267 5257 5247 5239 5231 5224 5218 5213 5208 5205 5202 5201 5201 5201 5203 5205 5208 5212 5218 5226 5235 5247 5260 5275 5292 5311 5332 5355 5378 5403 5428 5452
5324 5313 5302 5291 5280 5271 5261 5251 5242 5233 5226 5220 5214 5209 5204 5201 5199 5198 5198 5198 5200 5203 5206 5210 5215 5222 5232 5242 5254 5268 5285 5303 5323 5345 5369 5393 5418 5442
5317 5306 5295 5285 5274 5264 5254 5245 5236 5228 5221 5215 5209 5204 5201 5198 5196 5195 5195 5196 5197 5200 5204 5208 5213 5219 5228 5237 5249 5263 5278 5296 5316 5337 5359 5384 5409 5434
5309 5299 5289 5278 5268 5258 5249 5239 5231 5223 5216 5210 5205 5201 5197 5195 5193 5192 5192 5193 5195 5198 5201 5206 5211 5217 5225 5235 5245 5258 5273 5290 5308 5328 5351 5376 5401 5426
5303 5292 5282 5272 5262 5252 5243 5234 5226 5219 5212 5206 5202 5198 5194 5192 5190 5190 5190 5192 5194 5196 5200 5204 5209 5215 5223 5232 5242 5254 5268 5283 5301 5321 5345 5370 5396 5421
5296 5286 5276 5266 5256 5247 5238 5230 5222 5215 5209 5203 5199 5195 5192 5190 5189 5189 5189 5191 5193 5196 5199 5203 5209 5215 5222 5230 5240 5251 5264 5279 5296 5317 5340 5364 5389 5412
5290 5280 5270 5261 5251 5243 5234 5226 5219 5212 5206 5201 5197 5194 5191 5190 5189 5189 5190 5191 5193 5196 5199 5204 5209 5214 5221 5229 5239 5250 5262 5277 5293 5313 5334 5357 5379 5400
5285 5275 5266 5256 5248 5239 5231 5224 5217 5211 5205 5201 5197 5194 5192 5190 5190 5190 5191 5192 5194 5197 5201 5205 5210 5216 5223 5231 5239 5249 5261 5275 5290 5308 5329 5352 5373 5397
5280 5271 5262 5253 5245 5237 5230 5223 5216 5211 5206 5202 5198 5195 5193 5192 5191 5191 5192 5194 5196 5199 5203 5207 5212 5218 5225 5232 5240 5250 5261 5274 5289 5307 5328 5350 5373 5397